User: anonymous   Login
Location: Caltech
(34.1382°N, 118.1253°W)
Time: 09:56:53
(UTC-07:00)
Language:

Cosmos 1758 Rocket - Orbit

View from above orbital plane
View from above orbital plane
View from above satellite
View from above satellite

Ground track
Ground track

The orbit data is extracted from the following two-line orbital elements,

1 16792U 86046B   16204.42048405  .00000108  00000-0  10387-4 0  9991
2 16792  82.4841 152.6865 0022919 300.9788 198.5846 14.83078232626008
Epoch (UTC): 22 July 2016 10:05:29
Eccentricity: 0.0022919
inclination: 82.4841°
perigee height: 603 km
apogee height: 635 km
right ascension of ascending node: 152.6865°
argument of perigee: 300.9788°
revolutions per day: 14.83078232
mean anomaly at epoch: 198.5846°
orbit number at epoch: 62600

The dashed part of the orbit path shows where the satellite is in the earth's shadow,  

DLR